Time,TemperatureF,DewpointF,PressureIn,WindDirection,WindDirectionDegrees,WindSpeedMPH,WindSpeedGustMPH,Humidity,HourlyPrecipIn,Conditions,Clouds,dailyrainin,SoftwareType,DateUTC
2013-06-02 00:00:00,74.2,72.7,29.99,South,185,0.0,0.0,95,0.00,,,0.00,Wunderground v.1.15,2013-06-02 06:00:00,
2013-06-02 00:10:00,74.0,72.5,29.99,South,185,0.0,0.0,95,0.00,,,0.00,Wunderground v.1.15,2013-06-02 06:10:00,
2013-06-02 00:15:00,74.0,72.5,29.98,South,185,0.0,0.0,95,0.00,,,0.00,Wunderground v.1.15,2013-06-02 06:15:00,
2013-06-02 00:25:00,73.9,72.4,29.98,South,185,0.0,0.0,95,0.00,,,0.00,Wunderground v.1.15,2013-06-02 06:25:00,
2013-06-02 00:30:00,73.9,72.4,29.97,South,185,0.0,0.0,95,0.00,,,0.00,Wunderground v.1.15,2013-06-02 06:30:00,
2013-06-02 00:40:00,74.0,72.8,29.97,South,185,0.0,0.0,96,0.00,,,0.00,Wunderground v.1.15,2013-06-02 06:40:00,
2013-06-02 00:45:00,74.0,72.5,29.98,South,185,0.0,0.0,95,0.00,,,0.00,Wunderground v.1.15,2013-06-02 06:45:00,
2013-06-02 00:55:00,74.0,72.5,29.98,South,185,0.0,0.0,95,0.00,,,0.00,Wunderground v.1.15,2013-06-02 06:55:00,
2013-06-02 01:00:00,73.9,72.4,29.98,South,185,0.0,0.0,95,0.00,,,0.00,Wunderground v.1.15,2013-06-02 07:00:00,
2013-06-02 01:10:00,73.7,72.2,29.98,South,185,0.0,0.0,95,0.00,,,0.00,Wunderground v.1.15,2013-06-02 07:10:00,
2013-06-02 01:15:00,73.5,72.0,29.98,South,185,0.0,0.0,95,0.00,,,0.00,Wunderground v.1.15,2013-06-02 07:15:00,
2013-06-02 01:25:00,73.3,71.8,29.98,South,185,0.0,0.0,95,0.00,,,0.00,Wunderground v.1.15,2013-06-02 07:25:00,
2013-06-02 01:30:00,73.2,72.0,29.97,South,185,0.0,0.0,96,0.00,,,0.00,Wunderground v.1.15,2013-06-02 07:30:00,
2013-06-02 01:40:00,73.0,71.8,29.97,South,185,0.0,0.0,96,0.00,,,0.00,Wunderground v.1.15,2013-06-02 07:40:00,
2013-06-02 01:45:00,72.8,71.6,29.96,South,185,0.0,0.0,96,0.00,,,0.00,Wunderground v.1.15,2013-06-02 07:45:00,
2013-06-02 01:55:00,72.7,71.5,29.96,South,185,0.0,0.0,96,0.00,,,0.00,Wunderground v.1.15,2013-06-02 07:55:00,
2013-06-02 02:00:00,72.5,71.3,29.96,South,185,0.0,0.0,96,0.00,,,0.00,Wunderground v.1.15,2013-06-02 08:00:00,
2013-06-02 02:10:00,72.5,71.3,29.96,South,185,0.0,0.0,96,0.00,,,0.00,Wunderground v.1.15,2013-06-02 08:10:00,
2013-06-02 02:15:00,72.5,71.3,29.97,South,185,0.0,0.0,96,0.00,,,0.00,Wunderground v.1.15,2013-06-02 08:15:00,
2013-06-02 02:25:00,72.3,71.1,29.97,South,185,0.0,0.0,96,0.00,,,0.00,Wunderground v.1.15,2013-06-02 08:25:00,
2013-06-02 02:30:00,72.1,70.9,29.97,South,185,0.0,0.0,96,0.00,,,0.00,Wunderground v.1.15,2013-06-02 08:30:00,
2013-06-02 02:40:00,72.0,70.8,29.97,South,185,0.0,0.0,96,0.00,,,0.00,Wunderground v.1.15,2013-06-02 08:40:00,
2013-06-02 02:45:00,71.8,70.6,29.96,South,185,0.0,0.0,96,0.00,,,0.00,Wunderground v.1.15,2013-06-02 08:45:00,
2013-06-02 02:55:00,71.8,70.6,29.96,South,185,0.0,0.0,96,0.00,,,0.00,Wunderground v.1.15,2013-06-02 08:55:00,
2013-06-02 03:00:00,71.8,70.6,29.97,South,185,0.0,0.0,96,0.00,,,0.00,Wunderground v.1.15,2013-06-02 09:00:00,
2013-06-02 03:10:00,71.8,70.6,29.97,South,185,0.0,0.0,96,0.00,,,0.00,Wunderground v.1.15,2013-06-02 09:10:00,
2013-06-02 03:15:00,71.8,70.6,29.98,South,185,0.0,0.0,96,0.00,,,0.00,Wunderground v.1.15,2013-06-02 09:15:00,
2013-06-02 03:25:00,71.6,70.4,29.98,South,185,0.0,0.0,96,0.00,,,0.00,Wunderground v.1.15,2013-06-02 09:25:00,
2013-06-02 03:30:00,71.6,70.4,29.99,South,185,0.0,0.0,96,0.00,,,0.00,Wunderground v.1.15,2013-06-02 09:30:00,
2013-06-02 03:40:00,71.5,70.3,29.99,South,185,0.0,0.0,96,0.00,,,0.00,Wunderground v.1.15,2013-06-02 09:40:00,
2013-06-02 03:45:00,71.6,70.4,30.00,South,185,0.0,0.0,96,0.00,,,0.00,Wunderground v.1.15,2013-06-02 09:45:00,
2013-06-02 03:55:00,71.5,70.3,30.00,South,185,0.0,0.0,96,0.00,,,0.00,Wunderground v.1.15,2013-06-02 09:55:00,
2013-06-02 04:00:00,71.5,70.3,30.00,South,185,0.0,0.0,96,0.00,,,0.00,Wunderground v.1.15,2013-06-02 10:00:00,
2013-06-02 04:10:00,71.5,70.3,30.00,South,185,0.0,0.0,96,0.00,,,0.00,Wunderground v.1.15,2013-06-02 10:10:00,
2013-06-02 04:15:00,71.5,70.3,29.99,South,185,0.0,0.0,96,0.00,,,0.00,Wunderground v.1.15,2013-06-02 10:15:00,
2013-06-02 04:25:00,71.3,70.1,29.99,South,185,0.0,0.0,96,0.00,,,0.00,Wunderground v.1.15,2013-06-02 10:25:00,
2013-06-02 04:30:00,71.1,69.9,29.99,South,185,0.0,0.0,96,0.00,,,0.00,Wunderground v.1.15,2013-06-02 10:30:00,
2013-06-02 04:40:00,71.1,69.9,29.99,South,185,0.0,0.0,96,0.00,,,0.00,Wunderground v.1.15,2013-06-02 10:40:00,
2013-06-02 04:45:00,70.9,69.7,30.00,South,185,0.0,0.0,96,0.00,,,0.00,Wunderground v.1.15,2013-06-02 10:45:00,
2013-06-02 04:55:00,70.9,70.0,30.00,South,185,0.0,0.0,97,0.00,,,0.00,Wunderground v.1.15,2013-06-02 10:55:00,
2013-06-02 05:00:00,70.9,69.7,30.00,South,185,0.0,0.0,96,0.00,,,0.00,Wunderground v.1.15,2013-06-02 11:00:00,
2013-06-02 05:10:00,70.9,70.0,30.00,South,185,0.0,0.0,97,0.00,,,0.00,Wunderground v.1.15,2013-06-02 11:10:00,
2013-06-02 05:15:00,70.9,70.0,30.00,South,185,0.0,0.0,97,0.00,,,0.00,Wunderground v.1.15,2013-06-02 11:15:00,
2013-06-02 05:25:00,70.9,70.0,30.00,South,185,0.0,0.0,97,0.00,,,0.00,Wunderground v.1.15,2013-06-02 11:25:00,
2013-06-02 05:30:00,71.1,70.2,29.99,South,185,0.0,0.0,97,0.00,,,0.00,Wunderground v.1.15,2013-06-02 11:30:00,
2013-06-02 05:40:00,71.3,70.4,29.99,SW,223,0.0,0.0,97,0.00,,,0.00,Wunderground v.1.15,2013-06-02 11:40:00,
2013-06-02 05:45:00,71.8,70.9,29.99,SW,223,0.0,0.0,97,0.00,,,0.00,Wunderground v.1.15,2013-06-02 11:45:00,
2013-06-02 05:55:00,71.8,70.6,29.99,NNW,347,2.0,9.0,96,0.00,,,0.00,Wunderground v.1.15,2013-06-02 11:55:00,
2013-06-02 06:00:00,71.1,69.9,30.00,NNW,336,3.0,7.0,96,0.00,,,0.00,Wunderground v.1.15,2013-06-02 12:00:00,
2013-06-02 06:10:00,70.6,69.4,30.00,NNW,339,0.0,0.0,96,0.00,,,0.00,Wunderground v.1.15,2013-06-02 12:10:00,
2013-06-02 06:15:00,70.4,68.9,30.01,North,349,0.0,0.0,95,0.00,,,0.00,Wunderground v.1.15,2013-06-02 12:15:00,
2013-06-02 06:25:00,70.3,68.5,30.01,North,0,2.0,2.0,94,0.00,,,0.00,Wunderground v.1.15,2013-06-02 12:25:00,
2013-06-02 06:30:00,70.4,68.3,30.00,North,353,0.0,0.0,93,0.00,,,0.00,Wunderground v.1.15,2013-06-02 12:30:00,
2013-06-02 06:40:00,70.8,68.4,30.00,West,270,0.0,1.0,92,0.00,,,0.00,Wunderground v.1.15,2013-06-02 12:40:00,
2013-06-02 06:45:00,70.9,68.5,30.00,North,354,0.0,1.0,92,0.00,,,0.00,Wunderground v.1.15,2013-06-02 12:45:00,
2013-06-02 06:55:00,71.6,68.2,30.00,NW,304,1.0,7.0,89,0.00,,,0.00,Wunderground v.1.15,2013-06-02 12:55:00,
2013-06-02 07:00:00,72.1,67.7,30.00,NW,311,0.0,0.0,86,0.00,,,0.00,Wunderground v.1.15,2013-06-02 13:00:00,
2013-06-02 07:10:00,73.3,67.5,30.00,North,0,0.0,0.0,82,0.00,,,0.00,Wunderground v.1.15,2013-06-02 13:10:00,
2013-06-02 07:15:00,74.0,67.4,29.99,North,0,1.0,1.0,80,0.00,,,0.00,Wunderground v.1.15,2013-06-02 13:15:00,
2013-06-02 07:25:00,74.7,66.6,29.99,North,0,1.0,1.0,76,0.00,,,0.00,Wunderground v.1.15,2013-06-02 13:25:00,
2013-06-02 07:30:00,75.1,66.6,30.00,North,356,1.0,1.0,75,0.00,,,0.00,Wunderground v.1.15,2013-06-02 13:30:00,
2013-06-02 07:40:00,75.6,66.7,30.00,NNW,343,1.0,6.0,74,0.00,,,0.00,Wunderground v.1.15,2013-06-02 13:40:00,
2013-06-02 07:45:00,76.1,67.2,29.99,North,0,1.0,6.0,74,0.00,,,0.00,Wunderground v.1.15,2013-06-02 13:45:00,
2013-06-02 07:55:00,76.8,66.7,29.99,North,354,1.0,1.0,71,0.00,,,0.00,Wunderground v.1.15,2013-06-02 13:55:00,
2013-06-02 08:00:00,77.2,67.1,29.99,NNW,340,1.0,1.0,71,0.00,,,0.00,Wunderground v.1.15,2013-06-02 14:00:00,
2013-06-02 08:10:00,77.7,66.7,29.99,North,356,0.0,0.0,69,0.00,,,0.00,Wunderground v.1.15,2013-06-02 14:10:00,
2013-06-02 08:15:00,78.1,66.7,29.99,NNW,340,1.0,6.0,68,0.00,,,0.00,Wunderground v.1.15,2013-06-02 14:15:00,
2013-06-02 08:25:00,78.5,66.2,29.99,NNW,347,1.0,6.0,66,0.00,,,0.00,Wunderground v.1.15,2013-06-02 14:25:00,
2013-06-02 08:30:00,79.0,67.1,29.98,North,359,0.0,0.0,67,0.00,,,0.00,Wunderground v.1.15,2013-06-02 14:30:00,
2013-06-02 08:40:00,80.1,66.8,29.98,North,0,0.0,0.0,64,0.00,,,0.00,Wunderground v.1.15,2013-06-02 14:40:00,
2013-06-02 08:45:00,80.3,67.0,29.97,North,353,0.0,0.0,64,0.00,,,0.00,Wunderground v.1.15,2013-06-02 14:45:00,
2013-06-02 08:55:00,80.5,67.2,29.97,NNW,346,0.0,0.0,64,0.00,,,0.00,Wunderground v.1.15,2013-06-02 14:55:00,
2013-06-02 09:00:00,80.9,67.1,29.97,North,357,0.0,0.0,63,0.00,,,0.00,Wunderground v.1.15,2013-06-02 15:00:00,
2013-06-02 09:10:00,81.6,67.8,29.97,NNW,344,0.0,0.0,63,0.00,,,0.00,Wunderground v.1.15,2013-06-02 15:10:00,
2013-06-02 09:15:00,82.2,66.9,29.96,North,357,0.0,0.0,60,0.00,,,0.00,Wunderground v.1.15,2013-06-02 15:15:00,
2013-06-02 09:25:00,82.4,67.1,29.96,NNW,344,0.0,0.0,60,0.00,,,0.00,Wunderground v.1.15,2013-06-02 15:25:00,
2013-06-02 09:30:00,82.6,66.8,29.96,NNW,346,0.0,0.0,59,0.00,,,0.00,Wunderground v.1.15,2013-06-02 15:30:00,
2013-06-02 09:40:00,83.4,67.6,29.96,NNW,339,0.0,0.0,59,0.00,,,0.00,Wunderground v.1.15,2013-06-02 15:40:00,
2013-06-02 09:45:00,84.0,67.6,29.95,ESE,102,0.0,0.0,58,0.00,,,0.00,Wunderground v.1.15,2013-06-02 15:45:00,
2013-06-02 09:55:00,84.5,68.1,29.95,East,83,0.0,0.0,58,0.00,,,0.00,Wunderground v.1.15,2013-06-02 15:55:00,
2013-06-02 10:00:00,84.9,68.0,29.95,NNW,340,0.0,0.0,57,0.00,,,0.00,Wunderground v.1.15,2013-06-02 16:00:00,
2013-06-02 10:10:00,85.5,68.5,29.95,West,277,0.0,0.0,57,0.00,,,0.00,Wunderground v.1.15,2013-06-02 16:10:00,
2013-06-02 10:15:00,85.7,68.7,29.95,West,261,0.0,0.0,57,0.00,,,0.00,Wunderground v.1.15,2013-06-02 16:15:00,
2013-06-02 10:25:00,85.7,68.2,29.95,WNW,294,0.0,0.0,56,0.00,,,0.00,Wunderground v.1.15,2013-06-02 16:25:00,
2013-06-02 10:30:00,85.7,68.2,29.94,WSW,251,0.0,1.0,56,0.00,,,0.00,Wunderground v.1.15,2013-06-02 16:30:00,
2013-06-02 10:40:00,87.0,68.3,29.94,South,172,1.0,1.0,54,0.00,,,0.00,Wunderground v.1.15,2013-06-02 16:40:00,
2013-06-02 10:45:00,87.0,68.3,29.94,SSW,198,0.0,1.0,54,0.00,,,0.00,Wunderground v.1.15,2013-06-02 16:45:00,
2013-06-02 10:55:00,87.0,67.8,29.94,SSE,155,0.0,0.0,53,0.00,,,0.00,Wunderground v.1.15,2013-06-02 16:55:00,
2013-06-02 11:00:00,87.0,67.8,29.94,SW,216,0.0,0.0,53,0.00,,,0.00,Wunderground v.1.15,2013-06-02 17:00:00,
2013-06-02 11:10:00,87.4,68.7,29.94,SSW,203,1.0,1.0,54,0.00,,,0.00,Wunderground v.1.15,2013-06-02 17:10:00,
2013-06-02 11:15:00,87.4,68.7,29.94,SW,229,1.0,1.0,54,0.00,,,0.00,Wunderground v.1.15,2013-06-02 17:15:00,
2013-06-02 11:25:00,87.4,69.8,29.94,SSW,209,0.0,1.0,56,0.00,,,0.00,Wunderground v.1.15,2013-06-02 17:25:00,
2013-06-02 11:30:00,87.6,70.0,29.94,SSW,210,0.0,0.0,56,0.00,,,0.00,Wunderground v.1.15,2013-06-02 17:30:00,
2013-06-02 11:40:00,87.6,67.8,29.94,SSE,160,0.0,0.0,52,0.00,,,0.00,Wunderground v.1.15,2013-06-02 17:40:00,
2013-06-02 11:45:00,87.6,68.9,29.93,WSW,247,1.0,1.0,54,0.00,,,0.00,Wunderground v.1.15,2013-06-02 17:45:00,
2013-06-02 11:55:00,88.4,69.6,29.93,SW,229,0.0,1.0,54,0.00,,,0.00,Wunderground v.1.15,2013-06-02 17:55:00,
2013-06-02 12:00:00,88.4,69.6,29.93,WSW,241,0.0,0.0,54,0.00,,,0.00,Wunderground v.1.15,2013-06-02 18:00:00,
2013-06-02 12:10:00,88.8,70.0,29.93,SSE,152,0.0,0.0,54,0.00,,,0.00,Wunderground v.1.15,2013-06-02 18:10:00,
2013-06-02 12:15:00,88.8,70.0,29.92,SW,223,0.0,0.0,54,0.00,,,0.00,Wunderground v.1.15,2013-06-02 18:15:00,
2013-06-02 12:25:00,88.8,70.0,29.92,WSW,257,1.0,2.0,54,0.00,,,0.00,Wunderground v.1.15,2013-06-02 18:25:00,
2013-06-02 12:30:00,88.8,70.0,29.91,WSW,243,2.0,6.0,54,0.00,,,0.00,Wunderground v.1.15,2013-06-02 18:30:00,
2013-06-02 12:40:00,89.0,70.2,29.91,ESE,120,1.0,1.0,54,0.00,,,0.00,Wunderground v.1.15,2013-06-02 18:40:00,
2013-06-02 12:45:00,89.0,70.2,29.91,SW,236,0.0,1.0,54,0.00,,,0.00,Wunderground v.1.15,2013-06-02 18:45:00,
2013-06-02 12:55:00,89.0,70.2,29.91,WSW,251,4.0,4.0,54,0.00,,,0.00,Wunderground v.1.15,2013-06-02 18:55:00,
2013-06-02 13:00:00,89.0,70.2,29.91,WSW,253,1.0,2.0,54,0.00,,,0.00,Wunderground v.1.15,2013-06-02 19:00:00,
2013-06-02 13:10:00,90.3,70.3,29.91,WSW,239,0.0,0.0,52,0.00,,,0.00,Wunderground v.1.15,2013-06-02 19:10:00,
2013-06-02 13:15:00,90.3,69.1,29.91,SSE,155,0.0,0.0,50,0.00,,,0.00,Wunderground v.1.15,2013-06-02 19:15:00,
2013-06-02 13:25:00,90.1,69.0,29.91,SSE,167,0.0,0.0,50,0.00,,,0.00,Wunderground v.1.15,2013-06-02 19:25:00,
2013-06-02 13:30:00,90.3,69.7,29.91,South,181,1.0,1.0,51,0.00,,,0.00,Wunderground v.1.15,2013-06-02 19:30:00,
2013-06-02 13:40:00,90.5,69.3,29.91,SSE,167,0.0,0.0,50,0.00,,,0.00,Wunderground v.1.15,2013-06-02 19:40:00,
2013-06-02 13:45:00,90.7,70.1,29.91,WSW,241,0.0,0.0,51,0.00,,,0.00,Wunderground v.1.15,2013-06-02 19:45:00,
2013-06-02 13:55:00,90.5,70.5,29.91,SSW,202,1.0,6.0,52,0.00,,,0.00,Wunderground v.1.15,2013-06-02 19:55:00,
2013-06-02 14:00:00,90.3,70.3,29.90,SSW,196,0.0,1.0,52,0.00,,,0.00,Wunderground v.1.15,2013-06-02 20:00:00,
2013-06-02 14:10:00,89.0,69.1,29.90,SSE,148,2.0,2.0,52,0.00,,,0.00,Wunderground v.1.15,2013-06-02 20:10:00,
2013-06-02 14:15:00,88.8,68.9,29.89,SW,232,1.0,2.0,52,0.00,,,0.00,Wunderground v.1.15,2013-06-02 20:15:00,
2013-06-02 14:25:00,88.4,71.7,29.89,SSE,168,2.0,2.0,58,0.00,,,0.00,Wunderground v.1.15,2013-06-02 20:25:00,
2013-06-02 14:30:00,88.0,71.4,29.89,SW,220,1.0,1.0,58,0.00,,,0.00,Wunderground v.1.15,2013-06-02 20:30:00,
2013-06-02 14:40:00,87.2,71.1,29.89,SSE,148,1.0,2.0,59,0.00,,,0.00,Wunderground v.1.15,2013-06-02 20:40:00,
2013-06-02 14:45:00,87.0,71.9,29.89,SW,230,0.0,2.0,61,0.00,,,0.00,Wunderground v.1.15,2013-06-02 20:45:00,
2013-06-02 14:55:00,86.5,71.9,29.89,SW,226,0.0,0.0,62,0.00,,,0.00,Wunderground v.1.15,2013-06-02 20:55:00,
2013-06-02 15:00:00,86.5,71.9,29.88,South,179,0.0,0.0,62,0.00,,,0.00,Wunderground v.1.15,2013-06-02 21:00:00,
2013-06-02 15:10:00,86.1,71.6,29.88,SSW,199,2.0,2.0,62,0.00,,,0.00,Wunderground v.1.15,2013-06-02 21:10:00,
2013-06-02 15:15:00,85.9,70.9,29.88,SW,229,1.0,2.0,61,0.00,,,0.00,Wunderground v.1.15,2013-06-02 21:15:00,
2013-06-02 15:25:00,86.1,71.6,29.88,SW,230,1.0,1.0,62,0.00,,,0.00,Wunderground v.1.15,2013-06-02 21:25:00,
2013-06-02 15:30:00,85.9,71.4,29.88,South,189,1.0,1.0,62,0.00,,,0.00,Wunderground v.1.15,2013-06-02 21:30:00,
2013-06-02 15:40:00,85.9,72.3,29.88,WSW,246,1.0,1.0,64,0.00,,,0.00,Wunderground v.1.15,2013-06-02 21:40:00,
2013-06-02 15:45:00,85.9,72.3,29.88,WSW,243,1.0,1.0,64,0.00,,,0.00,Wunderground v.1.15,2013-06-02 21:45:00,
2013-06-02 15:55:00,86.1,72.5,29.88,South,189,1.0,1.0,64,0.00,,,0.00,Wunderground v.1.15,2013-06-02 21:55:00,
2013-06-02 16:00:00,85.9,72.8,29.88,SSW,199,0.0,0.0,65,0.00,,,0.00,Wunderground v.1.15,2013-06-02 22:00:00,
2013-06-02 16:10:00,85.5,73.7,29.88,SSW,213,1.0,1.0,68,0.00,,,0.00,Wunderground v.1.15,2013-06-02 22:10:00,
2013-06-02 16:15:00,85.3,73.5,29.88,SW,229,1.0,10.0,68,0.00,,,0.00,Wunderground v.1.15,2013-06-02 22:15:00,
2013-06-02 16:25:00,84.5,73.2,29.88,SW,227,2.0,2.0,69,0.00,,,0.00,Wunderground v.1.15,2013-06-02 22:25:00,
2013-06-02 16:30:00,84.1,72.8,29.88,WSW,237,2.0,4.0,69,0.00,,,0.00,Wunderground v.1.15,2013-06-02 22:30:00,
2013-06-02 16:40:00,83.4,72.6,29.88,WSW,254,1.0,1.0,70,0.00,,,0.00,Wunderground v.1.15,2013-06-02 22:40:00,
2013-06-02 16:45:00,83.4,73.0,29.87,SW,230,1.0,1.0,71,0.00,,,0.00,Wunderground v.1.15,2013-06-02 22:45:00,
2013-06-02 16:55:00,83.2,72.8,29.87,SSE,167,0.0,1.0,71,0.00,,,0.00,Wunderground v.1.15,2013-06-02 22:55:00,
2013-06-02 17:00:00,83.2,72.8,29.87,SSE,154,1.0,2.0,71,0.00,,,0.00,Wunderground v.1.15,2013-06-02 23:00:00,
2013-06-02 17:10:00,82.4,72.5,29.87,SW,230,1.0,1.0,72,0.00,,,0.00,Wunderground v.1.15,2013-06-02 23:10:00,
2013-06-02 17:15:00,82.0,73.3,29.86,WSW,257,0.0,1.0,75,0.00,,,0.00,Wunderground v.1.15,2013-06-02 23:15:00,
2013-06-02 17:25:00,81.4,73.1,29.86,SW,226,1.0,1.0,76,0.00,,,0.00,Wunderground v.1.15,2013-06-02 23:25:00,
2013-06-02 17:30:00,81.1,73.2,29.87,WSW,237,0.0,0.0,77,0.00,,,0.00,Wunderground v.1.15,2013-06-02 23:30:00,
2013-06-02 17:40:00,80.7,73.2,29.87,WSW,243,1.0,1.0,78,0.00,,,0.00,Wunderground v.1.15,2013-06-02 23:40:00,
2013-06-02 17:45:00,80.5,73.4,29.88,SW,219,1.0,1.0,79,0.00,,,0.00,Wunderground v.1.15,2013-06-02 23:45:00,
2013-06-02 17:55:00,80.3,73.6,29.88,WSW,241,0.0,1.0,80,0.00,,,0.00,Wunderground v.1.15,2013-06-02 23:55:00,
2013-06-02 18:00:00,80.3,73.9,29.88,WSW,239,0.0,0.0,81,0.00,,,0.00,Wunderground v.1.15,2013-06-03 00:00:00,
2013-06-02 18:10:00,80.1,74.1,29.88,SW,229,0.0,0.0,82,0.00,,,0.00,Wunderground v.1.15,2013-06-03 00:10:00,
2013-06-02 18:15:00,80.1,74.1,29.89,SW,219,0.0,0.0,82,0.00,,,0.00,Wunderground v.1.15,2013-06-03 00:15:00,
2013-06-02 18:25:00,79.9,73.9,29.89,SW,234,0.0,0.0,82,0.00,,,0.00,Wunderground v.1.15,2013-06-03 00:25:00,
2013-06-02 18:30:00,79.8,74.2,29.89,SW,229,0.0,0.0,83,0.00,,,0.00,Wunderground v.1.15,2013-06-03 00:30:00,
2013-06-02 18:40:00,79.8,74.2,29.89,SW,236,0.0,0.0,83,0.00,,,0.00,Wunderground v.1.15,2013-06-03 00:40:00,
2013-06-02 18:45:00,79.6,74.3,29.89,SW,226,0.0,0.0,84,0.00,,,0.00,Wunderground v.1.15,2013-06-03 00:45:00,
2013-06-02 18:55:00,79.4,74.1,29.89,WSW,254,0.0,0.0,84,0.00,,,0.00,Wunderground v.1.15,2013-06-03 00:55:00,
2013-06-02 19:00:00,79.4,74.1,29.89,WSW,243,0.0,0.0,84,0.00,,,0.00,Wunderground v.1.15,2013-06-03 01:00:00,
2013-06-02 19:10:00,79.2,75.0,29.89,WSW,243,0.0,0.0,87,0.07,,,0.02,Wunderground v.1.15,2013-06-03 01:10:00,
2013-06-02 19:15:00,79.0,74.8,29.90,NW,326,0.0,0.0,87,0.04,,,0.02,Wunderground v.1.15,2013-06-03 01:15:00,
2013-06-02 19:25:00,79.0,74.8,29.90,North,7,0.0,0.0,87,0.04,,,0.02,Wunderground v.1.15,2013-06-03 01:25:00,
2013-06-02 19:30:00,76.0,72.2,29.91,North,0,0.0,0.0,88,0.00,,,0.02,Wunderground v.1.15,2013-06-03 01:30:00,
2013-06-02 19:40:00,75.8,72.0,29.91,North,0,0.0,0.0,88,0.00,,,0.02,Wunderground v.1.15,2013-06-03 01:40:00,
2013-06-02 19:45:00,75.6,71.8,29.91,North,0,0.0,0.0,88,0.00,,,0.02,Wunderground v.1.15,2013-06-03 01:45:00,
2013-06-02 19:55:00,75.1,71.3,29.91,North,0,0.0,0.0,88,0.00,,,0.03,Wunderground v.1.15,2013-06-03 01:55:00,
2013-06-02 20:00:00,74.9,71.1,29.92,North,0,0.0,0.0,88,0.00,,,0.03,Wunderground v.1.15,2013-06-03 02:00:00,
2013-06-02 20:10:00,74.6,71.5,29.92,East,99,0.0,0.0,90,0.00,,,0.03,Wunderground v.1.15,2013-06-03 02:10:00,
2013-06-02 20:15:00,74.4,71.6,29.92,East,99,0.0,0.0,91,0.00,,,0.03,Wunderground v.1.15,2013-06-03 02:15:00,
2013-06-02 20:25:00,74.0,71.5,29.92,East,99,0.0,0.0,92,0.00,,,0.03,Wunderground v.1.15,2013-06-03 02:25:00,
2013-06-02 20:30:00,74.0,71.5,29.92,East,93,0.0,0.0,92,0.00,,,0.03,Wunderground v.1.15,2013-06-03 02:30:00,
2013-06-02 20:40:00,74.0,71.5,29.92,East,90,0.0,0.0,92,0.00,,,0.03,Wunderground v.1.15,2013-06-03 02:40:00,
2013-06-02 20:45:00,73.9,71.7,29.92,East,90,0.0,0.0,93,0.00,,,0.03,Wunderground v.1.15,2013-06-03 02:45:00,
2013-06-02 20:55:00,73.7,71.5,29.92,East,95,0.0,0.0,93,0.00,,,0.03,Wunderground v.1.15,2013-06-03 02:55:00,
2013-06-02 21:00:00,73.5,71.4,29.93,East,95,0.0,0.0,93,0.00,,,0.03,Wunderground v.1.15,2013-06-03 03:00:00,
2013-06-02 21:10:00,73.5,71.4,29.93,East,95,0.0,0.0,93,0.00,,,0.03,Wunderground v.1.15,2013-06-03 03:10:00,
2013-06-02 21:15:00,73.5,71.4,29.92,East,95,0.0,0.0,93,0.00,,,0.03,Wunderground v.1.15,2013-06-03 03:15:00,
2013-06-02 21:25:00,73.3,71.2,29.92,East,95,0.0,0.0,93,0.00,,,0.03,Wunderground v.1.15,2013-06-03 03:25:00,
2013-06-02 21:30:00,73.3,71.2,29.93,East,95,0.0,0.0,93,0.00,,,0.03,Wunderground v.1.15,2013-06-03 03:30:00,
2013-06-02 21:40:00,73.2,71.1,29.93,East,95,0.0,0.0,93,0.00,,,0.03,Wunderground v.1.15,2013-06-03 03:40:00,
2013-06-02 21:45:00,73.0,70.9,29.93,East,95,0.0,0.0,93,0.00,,,0.03,Wunderground v.1.15,2013-06-03 03:45:00,
2013-06-02 21:55:00,72.8,70.7,29.93,East,95,0.0,0.0,93,0.00,,,0.03,Wunderground v.1.15,2013-06-03 03:55:00,
2013-06-02 22:00:00,72.8,70.7,29.94,East,95,0.0,0.0,93,0.00,,,0.03,Wunderground v.1.15,2013-06-03 04:00:00,
2013-06-02 22:05:00,72.8,70.7,29.94,East,95,0.0,0.0,93,0.00,,,0.03,Wunderground v.1.15,2013-06-03 04:05:00,
2013-06-02 22:10:00,72.8,70.7,29.94,East,95,0.0,0.0,93,0.00,,,0.03,Wunderground v.1.15,2013-06-03 04:10:00,
2013-06-02 22:15:00,72.8,71.3,29.93,East,95,0.0,0.0,95,0.00,,,0.03,Wunderground v.1.15,2013-06-03 04:15:00,
2013-06-02 22:25:00,72.8,71.3,29.93,East,95,0.0,0.0,95,0.00,,,0.03,Wunderground v.1.15,2013-06-03 04:25:00,
2013-06-02 22:30:00,72.8,71.3,29.93,East,95,0.0,0.0,95,0.00,,,0.03,Wunderground v.1.15,2013-06-03 04:30:00,
2013-06-02 22:40:00,72.8,71.3,29.93,East,95,0.0,0.0,95,0.00,,,0.03,Wunderground v.1.15,2013-06-03 04:40:00,
2013-06-02 22:45:00,73.0,71.5,29.93,East,95,0.0,0.0,95,0.00,,,0.03,Wunderground v.1.15,2013-06-03 04:45:00,
2013-06-02 22:55:00,73.2,71.7,29.93,East,95,0.0,0.0,95,0.00,,,0.03,Wunderground v.1.15,2013-06-03 04:55:00,
2013-06-02 23:00:00,73.2,71.7,29.92,East,95,0.0,0.0,95,0.00,,,0.00,Wunderground v.1.15,2013-06-03 05:00:00,
2013-06-02 23:10:00,73.2,71.7,29.92,East,95,0.0,0.0,95,0.00,,,0.00,Wunderground v.1.15,2013-06-03 05:10:00,
2013-06-02 23:15:00,73.2,71.7,29.92,East,95,0.0,0.0,95,0.00,,,0.00,Wunderground v.1.15,2013-06-03 05:15:00,
2013-06-02 23:25:00,73.0,71.5,29.92,East,95,0.0,0.0,95,0.00,,,0.00,Wunderground v.1.15,2013-06-03 05:25:00,
2013-06-02 23:30:00,73.0,71.5,29.93,East,95,0.0,0.0,95,0.00,,,0.00,Wunderground v.1.15,2013-06-03 05:30:00,
2013-06-02 23:40:00,73.0,71.5,29.93,East,95,0.0,0.0,95,0.00,,,0.00,Wunderground v.1.15,2013-06-03 05:40:00,
2013-06-02 23:45:00,73.0,71.5,29.92,East,95,0.0,0.0,95,0.00,,,0.00,Wunderground v.1.15,2013-06-03 05:45:00,
2013-06-02 23:55:00,73.0,71.5,29.92,East,95,0.0,0.0,95,0.00,,,0.00,Wunderground v.1.15,2013-06-03 05:55:00,